�N����,����,�~����,�C��,���x,�C��,����,���ϕ���,�ő�u�ԕ���,�ő厞����,���˗�,�I�_���x,�n�����x,�ő啗���N��,DTYPE
"23/04/13","00:10",0.0,7.3,90.3,1012.8,305.2,2.5,3.3,323.3,0.00,5.9,13.5,"00:06:08",1
"23/04/13","00:20",0.0,7.1,90.5,1012.6,293.6,2.0,3.9,318.4,0.00,5.7,13.5,"00:18:24",1
"23/04/13","00:30",0.0,6.9,90.7,1013.0,305.0,2.0,3.4,322.7,0.00,5.5,13.4,"00:24:24",1
"23/04/13","00:40",0.0,6.9,90.8,1012.8,316.9,2.2,2.8,324.0,0.00,5.5,13.3,"00:34:40",1
"23/04/13","00:50",0.0,6.7,91.0,1013.0,301.7,0.8,1.9,304.8,0.00,5.4,13.5,"00:47:28",1
"23/04/13","01:00",0.0,6.6,91.2,1012.6,322.1,1.5,2.5,318.5,0.00,5.3,13.2,"00:53:52",1
"23/04/13","01:10",0.0,6.6,91.4,1012.6,314.6,1.2,3.3,259.4,0.00,5.3,13.2,"01:09:20",1
"23/04/13","01:20",0.0,6.7,91.5,1012.3,288.2,2.5,3.1,263.3,0.00,5.5,13.1,"01:11:06",1
"23/04/13","01:30",0.0,6.5,91.5,1012.3,290.2,2.5,3.2,303.5,0.00,5.3,12.9,"01:28:34",1
"23/04/13","01:40",0.0,6.5,91.7,1012.6,305.1,3.0,4.2,318.6,0.00,5.3,12.9,"01:30:08",1
"23/04/13","01:50",0.0,6.5,91.8,1012.8,289.4,3.0,4.7,320.2,0.00,5.3,12.8,"01:49:46",1
"23/04/13","02:00",0.0,6.6,91.9,1012.3,307.8,3.7,5.2,321.1,0.00,5.4,13.0,"01:59:58",1
"23/04/13","02:10",0.0,6.7,91.8,1012.3,312.9,4.1,5.2,331.8,0.00,5.5,12.7,"02:05:02",1
"23/04/13","02:20",0.0,6.3,91.6,1012.3,285.8,1.6,4.2,327.2,0.00,5.1,12.8,"02:12:16",1
"23/04/13","02:30",0.0,5.6,91.9,1012.1,268.3,1.1,2.0,267.2,0.00,4.4,12.7,"02:27:36",1
"23/04/13","02:40",0.0,5.7,92.4,1012.1,293.6,2.0,5.1,320.6,0.00,4.6,12.6,"02:39:38",1
"23/04/13","02:50",0.0,6.4,91.9,1012.1,319.0,4.5,6.2,316.6,0.00,5.2,12.6,"02:43:06",1
"23/04/13","03:00",0.0,6.3,91.8,1012.1,304.9,3.4,4.4,310.8,0.00,5.1,12.7,"02:50:16",1
"23/04/13","03:10",0.0,6.1,91.8,1012.3,319.4,4.0,5.4,316.6,0.00,4.9,12.7,"03:08:06",1
"23/04/13","03:20",0.0,6.1,91.9,1012.8,332.7,3.1,4.8,327.9,0.00,4.9,12.3,"03:12:14",1
"23/04/13","03:30",0.0,6.0,91.9,1012.8,330.2,3.5,4.7,338.1,0.00,4.8,12.4,"03:21:20",1
"23/04/13","03:40",0.0,5.8,91.8,1013.0,309.8,2.2,4.1,335.4,0.00,4.6,12.4,"03:30:40",1
"23/04/13","03:50",0.0,5.5,92.0,1013.3,284.1,1.5,2.8,313.5,0.00,4.3,12.4,"03:48:36",1
"23/04/13","04:00",0.0,5.5,91.9,1013.3,304.0,2.1,3.4,314.5,0.00,4.3,12.4,"03:55:52",1
"23/04/13","04:10",0.0,5.2,92.0,1013.3,316.4,2.5,3.6,316.3,0.00,4.0,12.3,"04:04:16",1
"23/04/13","04:20",0.0,5.1,92.1,1013.0,310.2,2.0,2.6,317.6,0.00,4.0,12.2,"04:12:16",1
"23/04/13","04:30",0.0,4.9,92.4,1013.8,315.0,2.0,3.3,318.8,0.00,3.8,12.5,"04:29:22",1
"23/04/13","04:40",0.0,5.1,92.6,1013.8,306.8,2.7,3.7,330.8,0.00,4.0,12.2,"04:30:32",1
"23/04/13","04:50",0.0,4.9,92.6,1014.0,315.7,3.2,4.1,325.3,0.00,3.8,12.1,"04:44:16",1
"23/04/13","05:00",0.0,4.8,92.7,1013.8,323.4,2.6,3.4,311.3,0.00,3.8,12.2,"04:58:32",1
"23/04/13","05:10",0.0,4.8,92.8,1013.8,301.5,2.1,2.6,321.4,0.00,3.8,12.1,"05:00:08",1
"23/04/13","05:20",0.0,4.7,92.8,1013.5,312.5,2.5,3.3,321.5,0.00,3.7,12.0,"05:15:04",1
"23/04/13","05:30",0.0,4.6,92.7,1013.5,292.4,2.3,3.5,312.0,0.00,3.6,11.9,"05:27:20",1
"23/04/13","05:40",0.0,4.4,92.8,1014.0,319.8,1.8,2.7,320.6,0.00,3.4,12.1,"05:31:36",1
"23/04/13","05:50",0.0,4.3,92.8,1013.5,328.1,2.0,2.2,333.7,0.00,3.3,11.9,"05:44:32",1
"23/04/13","06:00",0.0,4.1,93.0,1013.8,308.1,2.2,3.4,325.9,0.00,3.1,11.7,"05:54:00",1
"23/04/13","06:10",0.0,4.3,93.2,1013.8,323.3,2.1,3.5,330.4,0.00,3.3,12.0,"06:06:24",1
"23/04/13","06:20",0.0,4.1,93.3,1014.2,307.4,1.8,2.6,339.3,0.00,3.2,11.9,"06:10:08",1
"23/04/13","06:30",0.0,4.3,93.5,1014.5,298.9,2.6,4.8,325.4,0.00,3.4,11.7,"06:28:52",1
"23/04/13","06:40",0.0,4.9,93.1,1014.5,317.1,4.5,6.0,331.4,0.00,3.9,11.7,"06:37:06",1
"23/04/13","06:50",0.0,5.3,92.6,1014.9,320.0,4.4,7.0,313.8,0.00,4.2,11.7,"06:45:28",1
"23/04/13","07:00",0.0,5.6,92.3,1015.2,323.6,4.4,5.8,308.3,0.01,4.5,11.6,"06:53:44",1
"23/04/13","07:10",0.0,5.5,91.8,1015.2,322.8,3.7,5.7,311.5,0.02,4.3,11.7,"07:01:12",1
"23/04/13","07:20",0.0,6.0,91.3,1015.2,318.2,4.0,5.9,319.2,0.04,4.7,11.6,"07:11:56",1
"23/04/13","07:30",0.0,6.2,90.7,1015.4,326.2,2.8,5.2,333.8,0.05,4.8,11.5,"07:20:32",1
"23/04/13","07:40",0.0,6.6,90.0,1015.6,330.2,2.0,2.6,355.3,0.07,5.1,11.6,"07:30:56",1
"23/04/13","07:50",0.0,7.5,89.4,1016.1,288.1,1.1,2.5,257.6,0.09,5.9,11.5,"07:49:52",1
"23/04/13","08:00",0.0,7.8,88.3,1016.4,270.9,2.0,2.8,254.0,0.11,6.0,11.4,"07:54:24",1
"23/04/13","08:10",0.0,8.5,86.3,1016.6,267.7,1.1,2.9,323.3,0.13,6.4,11.7,"08:00:48",1
"23/04/13","08:20",0.0,9.2,83.6,1016.6,286.6,1.2,2.7,328.4,0.16,6.6,11.4,"08:19:36",1
"23/04/13","08:30",0.0,9.9,80.6,1017.1,352.8,0.8,2.4,353.9,0.19,6.8,11.6,"08:20:08",1
"23/04/13","08:40",0.0,10.4,77.2,1017.1,334.9,0.7,1.7,100.2,0.21,6.6,11.6,"08:39:10",1
"23/04/13","08:50",0.0,10.6,75.7,1016.6,228.0,0.8,2.2,313.3,0.24,6.5,11.5,"08:49:12",1
"23/04/13","09:00",0.0,11.6,74.0,1017.3,328.3,0.8,1.8,318.9,0.26,7.2,11.7,"08:54:02",1
"23/04/13","09:10",0.0,12.3,71.0,1017.1,307.4,0.7,1.8,262.5,0.30,7.2,11.6,"09:06:40",1
"23/04/13","09:20",0.0,13.2,68.7,1016.6,336.1,0.6,1.6,262.0,0.31,7.6,11.7,"09:11:04",1
"23/04/13","09:30",0.0,14.0,67.0,1016.8,280.7,0.6,1.6,294.4,0.34,8.0,11.6,"09:22:40",1
"23/04/13","09:40",0.0,13.7,63.7,1016.4,150.3,0.8,2.1,113.5,0.36,7.0,11.7,"09:38:56",1
"23/04/13","09:50",0.0,13.9,62.3,1016.1,78.4,0.6,1.8,98.6,0.38,6.9,11.9,"09:40:08",1
"23/04/13","10:00",0.0,14.4,61.1,1015.9,150.2,0.8,2.5,122.4,0.39,7.0,11.9,"09:56:32",1
"23/04/13","10:10",0.0,15.0,59.0,1015.6,138.9,0.8,2.4,131.5,0.44,7.1,11.9,"10:07:02",1
"23/04/13","10:20",0.0,15.8,56.7,1015.4,199.3,0.8,2.2,243.9,0.46,7.3,12.2,"10:13:20",1
"23/04/13","10:30",0.0,16.1,53.6,1015.2,206.8,1.1,2.4,244.6,0.48,6.7,12.1,"10:21:04",1
"23/04/13","10:40",0.0,16.8,53.6,1014.7,177.6,0.8,2.4,131.6,0.49,7.4,12.2,"10:33:52",1
"23/04/13","10:50",0.0,17.5,52.6,1014.9,167.4,0.8,2.0,130.1,0.51,7.8,12.3,"10:42:16",1
"23/04/13","11:00",0.0,17.8,48.3,1015.2,194.8,1.3,2.6,137.3,0.53,6.8,12.4,"10:59:44",1
"23/04/13","11:10",0.0,17.7,48.2,1014.9,132.2,1.6,3.3,113.3,0.54,6.7,12.5,"11:07:20",1
"23/04/13","11:20",0.0,18.8,46.7,1014.5,186.6,0.8,3.1,191.9,0.55,7.2,12.7,"11:19:44",1
"23/04/13","11:30",0.0,18.4,42.4,1014.7,134.2,1.6,3.6,115.9,0.56,5.4,12.9,"11:29:44",1
"23/04/13","11:40",0.0,19.2,44.6,1014.2,178.3,1.5,3.3,181.8,0.57,6.9,12.8,"11:39:20",1
"23/04/13","11:50",0.0,19.1,42.3,1014.0,195.8,2.1,4.2,194.7,0.58,6.0,12.9,"11:41:36",1
"23/04/13","12:00",0.0,19.8,41.7,1013.8,229.6,1.2,4.0,236.4,0.59,6.5,13.4,"11:59:36",1
"23/04/13","12:10",0.0,19.0,41.9,1013.8,168.3,2.7,6.6,150.0,0.59,5.8,13.3,"12:07:04",1
"23/04/13","12:20",0.0,19.4,41.1,1013.5,162.1,2.2,6.5,162.8,0.60,5.9,13.5,"12:16:16",1
"23/04/13","12:30",0.0,20.0,37.0,1013.5,200.6,1.5,4.0,161.2,0.60,4.9,13.5,"12:29:28",1
"23/04/13","12:40",0.0,19.9,40.5,1013.5,150.0,3.0,6.7,133.7,0.60,6.1,13.7,"12:36:40",1
"23/04/13","12:50",0.0,19.8,41.0,1013.3,150.2,3.4,6.0,129.1,0.60,6.2,13.8,"12:43:52",1
"23/04/13","13:00",0.0,19.8,39.5,1012.8,168.7,2.7,5.2,141.7,0.59,5.7,14.0,"12:54:08",1
"23/04/13","13:10",0.0,19.9,40.6,1013.3,146.2,3.0,5.6,135.4,0.59,6.2,14.0,"13:04:32",1
"23/04/13","13:20",0.0,19.7,39.8,1013.0,144.4,3.2,5.9,128.1,0.58,5.7,14.2,"13:18:56",1
"23/04/13","13:30",0.0,20.2,39.5,1012.8,141.1,3.5,7.0,112.8,0.58,6.0,14.3,"13:21:52",1
"23/04/13","13:40",0.0,20.0,40.1,1012.3,140.9,3.5,6.0,128.1,0.57,6.1,14.4,"13:37:12",1
"23/04/13","13:50",0.0,20.5,40.1,1012.1,153.0,2.7,6.0,141.3,0.56,6.5,14.6,"13:40:24",1
"23/04/13","14:00",0.0,20.4,37.6,1011.9,137.4,2.7,5.8,118.0,0.55,5.5,14.6,"13:56:00",1
"23/04/13","14:10",0.0,20.6,37.5,1012.1,170.6,2.6,4.7,192.9,0.54,5.6,14.8,"14:04:32",1
"23/04/13","14:20",0.0,20.8,37.0,1011.9,158.5,2.5,4.9,159.1,0.53,5.6,15.1,"14:11:28",1
"23/04/13","14:30",0.0,21.1,37.0,1011.4,137.9,2.3,4.7,127.0,0.51,5.9,15.0,"14:22:48",1
"23/04/13","14:40",0.0,21.4,36.3,1011.9,176.9,2.3,5.0,200.2,0.50,5.9,15.2,"14:36:24",1
"23/04/13","14:50",0.0,21.4,34.8,1011.6,188.5,1.5,4.3,120.4,0.48,5.3,15.3,"14:47:12",1
"23/04/13","15:00",0.0,21.5,35.6,1011.6,157.5,2.2,4.5,119.0,0.47,5.7,15.1,"14:52:32",1
"23/04/13","15:10",0.0,21.7,36.6,1011.2,149.4,1.7,3.9,183.1,0.45,6.3,15.4,"15:04:48",1
"23/04/13","15:20",0.0,22.0,36.0,1011.2,138.5,1.6,3.5,115.4,0.43,6.3,15.5,"15:12:16",1
"23/04/13","15:30",0.0,22.3,35.4,1010.7,190.1,1.7,3.6,152.8,0.41,6.3,15.6,"15:20:16",1
"23/04/13","15:40",0.0,22.1,34.5,1010.7,186.4,1.8,5.0,146.4,0.39,5.8,15.5,"15:36:16",1
"23/04/13","15:50",0.0,21.9,34.3,1010.7,153.3,2.0,3.9,115.8,0.36,5.5,15.7,"15:47:52",1
"23/04/13","16:00",0.0,22.3,34.1,1010.4,161.7,2.1,4.2,118.0,0.34,5.8,15.8,"15:50:32",1
"23/04/13","16:10",0.0,22.3,33.1,1010.4,199.0,2.1,4.0,215.1,0.32,5.3,16.0,"16:00:56",1
"23/04/13","16:20",0.0,22.2,32.2,1010.9,192.2,2.3,4.0,191.4,0.29,4.9,16.0,"16:14:56",1
"23/04/13","16:30",0.0,21.8,29.6,1010.9,229.7,2.7,4.9,236.9,0.27,3.3,15.7,"16:26:56",1
"23/04/13","16:40",0.0,22.0,30.9,1010.9,217.0,2.0,4.0,219.2,0.24,4.1,16.0,"16:36:08",1
"23/04/13","16:50",0.0,22.0,29.1,1010.4,213.6,2.0,4.5,237.8,0.22,3.3,16.0,"16:42:00",1
"23/04/13","17:00",0.0,21.8,28.2,1010.4,209.2,2.5,4.5,244.2,0.20,2.6,15.9,"16:53:12",1
"23/04/13","17:10",0.0,21.7,27.6,1010.4,222.9,2.6,5.6,239.5,0.17,2.3,16.2,"17:05:52",1
"23/04/13","17:20",0.0,21.5,26.1,1010.7,215.9,2.3,4.5,237.1,0.14,1.3,15.9,"17:10:56",1
"23/04/13","17:30",0.0,21.6,27.7,1010.4,217.3,2.1,3.9,198.0,0.12,2.2,16.2,"17:24:16",1
"23/04/13","17:40",0.0,21.4,28.2,1010.7,202.4,1.7,3.5,213.0,0.10,2.3,16.1,"17:38:24",1
"23/04/13","17:50",0.0,21.2,28.0,1010.7,201.3,2.2,5.2,238.7,0.07,2.0,15.9,"17:45:52",1
"23/04/13","18:00",0.0,20.9,29.5,1010.7,200.7,2.2,5.2,153.0,0.06,2.5,16.1,"17:50:32",1
"23/04/13","18:10",0.0,20.7,31.7,1010.4,218.1,2.0,4.1,233.8,0.04,3.3,16.1,"18:04:16",1
"23/04/13","18:20",0.0,20.3,32.8,1010.7,233.7,2.1,4.4,234.2,0.03,3.5,16.1,"18:12:40",1
"23/04/13","18:30",0.0,19.9,34.0,1010.9,232.0,1.8,3.5,238.3,0.01,3.6,16.1,"18:27:04",1
"23/04/13","18:40",0.0,19.5,34.2,1011.2,245.9,1.3,3.2,253.1,0.00,3.4,15.9,"18:34:08",1
"23/04/13","18:50",0.0,19.0,35.5,1011.4,293.5,1.0,2.2,299.8,0.00,3.4,15.9,"18:48:16",1
"23/04/13","19:00",0.0,17.9,42.1,1011.6,330.9,2.1,2.7,326.1,0.00,4.9,16.1,"18:53:52",1
"23/04/13","19:10",0.0,17.0,46.4,1011.6,336.4,2.0,2.8,339.3,0.00,5.5,15.9,"19:00:08",1
"23/04/13","19:20",0.0,16.1,49.2,1012.1,333.5,1.8,2.7,342.1,0.00,5.5,16.0,"19:15:24",1
"23/04/13","19:30",0.0,15.5,51.5,1012.1,315.7,1.2,1.9,328.2,0.00,5.6,15.7,"19:26:40",1
"23/04/13","19:40",0.0,14.9,53.8,1012.3,324.5,1.2,2.7,333.0,0.00,5.7,15.8,"19:32:16",1
"23/04/13","19:50",0.0,14.5,55.5,1012.3,328.8,1.0,2.5,336.8,0.00,5.7,15.7,"19:43:04",1
"23/04/13","20:00",0.0,14.2,56.9,1012.1,259.0,1.3,2.9,251.0,0.00,5.8,15.5,"19:58:56",1
"23/04/13","20:10",0.0,14.5,55.8,1012.6,305.2,2.6,3.7,308.3,0.00,5.8,15.6,"20:07:52",1
"23/04/13","20:20",0.0,13.9,57.3,1012.6,300.0,2.5,3.4,314.5,0.00,5.6,15.5,"20:10:48",1
"23/04/13","20:30",0.0,13.8,54.9,1012.8,308.0,2.5,3.4,312.5,0.00,4.9,15.5,"20:20:10",1
"23/04/13","20:40",0.0,13.4,57.9,1013.3,295.1,2.3,3.1,309.3,0.00,5.3,15.3,"20:39:48",1
"23/04/13","20:50",0.0,12.9,60.3,1013.5,301.9,2.7,3.3,314.4,0.00,5.4,15.3,"20:44:46",1
"23/04/13","21:00",0.0,12.5,60.9,1013.8,301.7,2.3,2.9,307.5,0.00,5.2,15.1,"20:50:52",1
"23/04/13","21:10",0.0,12.3,60.7,1013.8,305.4,2.3,2.8,309.2,0.00,5.0,15.1,"21:04:00",1
"23/04/13","21:20",0.0,12.1,60.7,1013.8,287.8,2.2,2.8,315.1,0.00,4.8,15.2,"21:19:36",1
"23/04/13","21:30",0.0,12.1,61.0,1014.2,313.3,2.5,3.2,308.9,0.00,4.9,15.0,"21:22:02",1
"23/04/13","21:40",0.0,12.0,63.3,1014.0,319.7,3.2,4.4,320.6,0.00,5.3,14.9,"21:36:32",1
"23/04/13","21:50",0.0,11.8,62.6,1014.5,304.3,2.6,4.3,329.9,0.00,4.9,14.8,"21:40:24",1
"23/04/13","22:00",0.0,11.6,61.5,1014.2,309.7,2.3,2.9,326.8,0.00,4.5,14.8,"21:53:22",1
"23/04/13","22:10",0.0,11.4,63.4,1014.5,316.4,1.8,2.9,326.2,0.00,4.7,14.7,"22:07:52",1
"23/04/13","22:20",0.0,11.0,64.7,1014.7,278.0,1.5,2.7,268.0,0.00,4.7,14.7,"22:18:46",1
"23/04/13","22:30",0.0,11.2,64.2,1014.7,312.0,2.0,2.6,303.2,0.00,4.7,14.6,"22:23:16",1
"23/04/13","22:40",0.0,10.7,67.4,1014.7,321.4,2.3,3.2,318.9,0.00,5.0,14.7,"22:36:22",1
"23/04/13","22:50",0.0,10.2,69.1,1014.7,251.8,1.1,2.7,334.0,0.00,4.8,14.6,"22:40:24",1
"23/04/13","23:00",0.0,10.3,68.8,1014.9,292.8,2.1,2.5,323.4,0.00,4.9,14.5,"22:57:10",1
"23/04/13","23:10",0.0,10.4,68.6,1015.4,18.8,0.8,1.7,300.7,0.00,4.9,14.5,"23:09:08",1
"23/04/13","23:20",0.0,10.2,70.1,1015.6,318.3,1.7,2.4,328.9,0.00,5.0,14.3,"23:12:40",1
"23/04/13","23:30",0.0,9.9,71.7,1015.2,317.8,2.0,2.6,339.6,0.00,5.1,14.4,"23:21:28",1
"23/04/13","23:40",0.0,9.5,72.5,1015.2,299.7,1.6,2.4,314.3,0.00,4.8,14.2,"23:39:20",1
"23/04/13","23:50",0.0,9.5,72.7,1015.4,298.6,2.0,2.6,313.2,0.00,4.9,14.4,"23:42:56",1
"23/04/13","24:00",0.0,9.5,72.9,1015.4,288.5,1.5,2.1,313.8,0.00,4.9,14.3,"23:56:56",1
